• Join FlightAware (Why Join?)
  • Login
  • US Flag 
05:29AM EST


 

Airport Tracker/Info


-or-


 

Live Flight TrackerFlight Track Log ✈ N71NJ ✈ 14-May-2012 ✈ KCMH - KHPN

Flight Track Log - Related Links

Times and Time Zones

All times are in EDT time to prevent confusion due to time zone crossing. See the N71NJ flight status page for this flight to view local times or setup timezone preferences in your user account.

Time Position Orientation Groundspeed Altitude Reporting Facility
EDT Latitude Longitude Course Direction KTS MPH feet Rate Location/Type
09:44AM 39.9950 -82.9147 271° West 180 207 1,500  Level Indianapolis Center
09:45AM 39.9953 -82.9556 276° West 229 264 2,900 2,972 Climbing Indianapolis Center
09:46AM 40.0042 -83.0583 351° North 273 314 6,800 2,934 Climbing Indianapolis Center
09:47AM 40.0686 -83.0714 37° Northeast 219 252 9,600 2,800 Climbing Indianapolis Center
09:48AM 40.1289 -83.0114 29° Northeast 292 336 12,400 2,950 Climbing Indianapolis Center
09:49AM 40.2017 -82.9592 28° Northeast 298 343 15,500 2,950 Climbing Indianapolis Center
09:50AM 40.2847 -82.9011 27° Northeast 321 369 18,300 2,528 Climbing Indianapolis Center
09:53AM 40.4986 -82.7567 27° Northeast 366 421 23,800 2,223 Climbing Cleveland Center
09:54AM 40.5939 -82.6914 27° Northeast 372 428 25,600 1,650 Climbing Cleveland Center
09:55AM 40.6972 -82.6206 28° Northeast 382 440 27,100 1,400 Climbing Cleveland Center
09:56AM 40.8028 -82.5472 26° Northeast 411 473 28,400 1,300 Climbing Cleveland Center
09:57AM 40.9144 -82.4736 27° Northeast 429 494 29,700 4,300 Climbing Cleveland Center
09:58AM 41.0156 -82.4050 59° Northeast 441 507 37,000 1,150 Climbing Cleveland Center
09:59AM 41.0869 -82.2469 70° East 463 533 32,000 -2,000 Descending Cleveland Center
10:00AM 41.1308 -82.0856 70° East 455 524 33,000 1,000 Climbing Cleveland Center
10:01AM 41.1722 -81.9347 71° East 464 534 34,000 950 Climbing Cleveland Center
10:02AM 41.2158 -81.7700 71° East 471 542 34,900 900 Climbing Cleveland Center
10:03AM 41.2636 -81.5858 70° East 478 550 35,800 550 Climbing Cleveland Center
10:04AM 41.3128 -81.4097 70° East 498 573 36,000 500 Climbing Cleveland Center
10:05AM 41.3683 -81.2028 70° East 498 573 36,900 864 Climbing Cleveland Center
10:06AM 41.4131 -81.0344 71° East 498 573 37,900 900 Climbing Cleveland Center
10:07AM 41.4572 -80.8658 71° East 484 557 38,700 550 Climbing Cleveland Center
10:08AM 41.5014 -80.6969 71° East 479 551 39,000 150 Climbing Cleveland Center
10:09AM 41.5453 -80.5250 72° East 488 562 39,000  Level Cleveland Center
10:10AM 41.5867 -80.3528 71° East 488 562 39,000  Level Cleveland Center
10:11AM 41.6278 -80.1969 72° East 488 562 39,000  Level Cleveland Center
10:12AM 41.6708 -80.0189 71° East 488 562 39,000  Level Cleveland Center
10:13AM 41.7158 -79.8433 72° East 495 570 39,000  Level Cleveland Center
10:14AM 41.7583 -79.6647 71° East 502 578 39,000  Level Cleveland Center
10:15AM 41.8047 -79.4883 72° East 502 578 39,000  Level Cleveland Center
10:16AM 41.8467 -79.3122 71° East 502 578 39,000  Level Cleveland Center
10:17AM 41.8964 -79.1131 72° East 507 583 39,000  Level Cleveland Center
10:18AM 41.9339 -78.9558 73° East 497 572 39,000  Level Cleveland Center
10:19AM 41.9750 -78.7761 72° East 497 572 39,000  Level Cleveland Center
10:20AM 42.0178 -78.5961 72° East 504 580 39,000  Level Cleveland Center
10:21AM 42.0606 -78.4183 73° East 504 580 39,000  Level Cleveland Center
10:22AM 42.1028 -78.2350 73° East 504 580 39,000  Level Cleveland Center
10:23AM 42.1447 -78.0544 72° East 499 574 39,000  Level Cleveland Center
10:24AM 42.1867 -77.8761 74° East 499 574 39,000  Level Cleveland Center
10:25AM 42.2261 -77.6950 73° East 499 574 39,000  Level Cleveland Center
10:26AM 42.2672 -77.5164 74° East 499 574 39,000  Level Cleveland Center
10:27AM 42.3061 -77.3347 73° East 499 574 39,000  Level Cleveland Center
10:28AM 42.3744 -77.0247 73° East 514 592 39,000 -684 Level Boston Center
10:29AM 42.4150 -76.8419 74° East 508 585 37,200 -1,950 Descending Boston Center
10:30AM 42.4558 -76.6478 80° East 513 590 35,100 -2,050 Descending Boston Center
10:31AM 42.4794 -76.4578 99° East 521 600 33,100 -1,050 Descending Boston Center
10:32AM 42.4567 -76.2706 106° East 504 580 33,000 -300 Descending Boston Center
10:33AM 42.4222 -76.1108 106° East 499 574 32,500 -1,250 Descending Boston Center
10:34AM 42.3842 -75.9314 105° East 494 568 30,500 -2,100 Descending Boston Center
10:35AM 42.3481 -75.7497 107° East 499 574 28,300 -2,200 Descending Boston Center
10:36AM 42.3092 -75.5733 104° East 496 571 26,100 -2,200 Descending Boston Center
10:37AM 42.2764 -75.4006 106° East 481 554 23,900 -2,250 Descending Boston Center
10:38AM 42.2408 -75.2389 108° East 465 535 21,600 -2,200 Descending Boston Center
10:39AM 42.2050 -75.0861 108° East 451 519 19,500 -1,800 Descending Boston Center
10:40AM 42.1686 -74.9361 121° Southeast 428 493 18,000 -750 Descending Boston Center
10:41AM 42.1050 -74.7908 119° Southeast 413 475 18,000 -100 Level Boston Center
10:42AM 42.0614 -74.6828 119° Southeast 413 475 17,800 -950 Descending Boston Center
10:43AM 41.9936 -74.5211 119° Southeast 413 475 16,100 -1,550 Descending Boston Center
10:44AM 41.9456 -74.4050 120° Southeast 406 467 14,700 -1,550 Descending Boston Center
10:45AM 41.8875 -74.2722 121° Southeast 389 448 13,000 -1,550 Descending Boston Center
10:46AM 41.8392 -74.1622 124° Southeast 381 438 11,600 -1,000 Descending Boston Center
10:47AM 41.7825 -74.0492 150° Southeast 368 423 11,000 -650 Descending Boston Center
10:48AM 41.6981 -73.9831 169° South 324 373 10,300 -1,100 Descending Boston Center
10:49AM 41.6314 -73.9650 172° South 286 329 8,800 -1,742 Descending Boston Center
10:50AM 41.5500 -73.9500 169° South 257 296 6,700 -1,355 Descending New York TRACON
10:51AM 41.4833 -73.9333 169° South 246 283 6,000 -650 Descending New York TRACON
10:52AM 41.4167 -73.9167 169° South 236 272 5,400 -1,000 Descending New York TRACON
10:53AM 41.3500 -73.9000 159° South 240 276 4,000 -700 Descending New York TRACON
10:54AM 41.2833 -73.8667 153° Southeast 243 280 4,000 -50 Level New York TRACON
10:55AM 41.2333 -73.8333 153° Southeast 224 258 3,900 -650 Descending New York TRACON
10:56AM 41.1833 -73.8000 153° Southeast 187 215 2,700 -1,050 Descending New York TRACON
10:57AM 41.1333 -73.7667 143° Southeast 170 196 1,800 -800 Descending New York TRACON
10:58AM 41.1000 -73.7333 300° West 148 170 1,100 -700 Descending New York TRACON
11:06AM 41.5435 -74.7866 119° Southeast  Level FlightAware Approximate
11:07AM 41.4860 -74.6478 119° Southeast  Level FlightAware Approximate